Location: Antioch Baptist Church
(32.7160°N, 96.7483°W)
Time: 19:52:23
(UTC+00:00)

Cosmos 1627 Rocket - Pass Details

Date: 05 December 2023
Orbit: 949 x 1004 km, 82.9° (Epoch: 20 February)

Event Time Altitude Azimuth Distance (km) Brightness Sun altitude
Rises 12:03:30 0° 351° (N) 3,735 7.3 -14.7°
Reaches altitude 10° 12:06:03 10° 350° (N) 2,780 6.6 -14.2°
Maximum altitude 12:12:26 75° 266° (W) 1,034 4.5 -12.9°
Drops below altitude 10° 12:18:42 10° 183° (S) 2,739 7.1 -11.6°
Sets 12:21:12 0° 181° (S) 3,676 7.8 -11.1°
